Content
SEND FEEDBACK

Daily
Averages
Monthly
Summary
France

AVIGNON, FRANCE


Home > Europe > France
Elevation: 187 feet     Latitude: 44 00N     Longitude: 004 45E

WEATHER
 
SELECT A DAY
Number of Records: 167,627;   Date Range: 5/17/04 - 8/10/14
 
SHARE

PRINT THIS DATA

[ ← Previous Day ]
WEATHER ALMANAC - OCTOBER 1, 2013
[ Next Day → ]
[ °C ]   °F
Weather ElementAverageHighLow
Temperature67 °F78.8 °F (3:00 pm)55.4 °F (7:00 am)
Dewpoint59 °F64.4 °F (7:00 pm)53.6 °F (7:00 am)
Humidity77.4 %94 % (2:00 am)51 % (4:30 pm)
Barometer29.76 in29.83 in (11:30 pm)29.71 in (12:30 am)
Wind Speed2.6 mph5.8 mph (3:30 am)
Weather ElementAverage
Visibility6.2 mi
Wind DirectionESE (97.7 °)

Weather ElementTotal
Precipitation---
Cooling Degree Days2.1 (Base 65)
Growing Degree Days17.1 (Base 50)
Averaged from 47 records on October 1, 2013
WEATHER CONDITIONS BREAKOUT
WIND DIRECTION BREAKOUT
WEATHER BY HOUR - OCTOBER 1, 2013
[ °C ]   °F
Local TimeTemperatureDewpointHumidityBarometerVisibilityWind DirectionWind SpeedGust SpeedPrecipitationEventsConditions
12:30 AM60.8 °F57.2 °F88 %29.71 in6.2 miVariable2.3 mph
1:00 AM60.8 °F57.2 °F88 %29.74 in6.2 miVariable3.5 mph
1:30 AM60.8 °F57.2 °F88 %29.74 in6.2 miNorth (350°)4.6 mph
2:00 AM59.0 °F57.2 °F94 %29.74 in6.2 miNNW (330°)3.5 mph
2:30 AM60.8 °F57.2 °F88 %29.74 in6.2 miNorth (350°)3.5 mph
3:00 AM59.0 °F57.2 °F94 %29.74 in6.2 miNNW (330°)4.6 mph
3:30 AM60.8 °F57.2 °F88 %29.74 in6.2 miNW (320°)5.8 mph
4:00 AM60.8 °F57.2 °F88 %29.74 in6.2 miNorth (360°)4.6 mph
4:30 AM60.8 °F57.2 °F88 %29.74 in6.2 miNorth (10°)4.6 mph
5:00 AM60.8 °F57.2 °F88 %29.74 in6.2 miNNE (20°)4.6 mph
5:30 AM59.0 °F57.2 °F94 %29.74 in6.2 miVariable2.3 mph
6:00 AM59.0 °F57.2 °F94 %29.74 in6.2 miVariable2.3 mph
6:30 AM57.2 °F55.4 °F94 %29.74 in6.2 miCalm
7:00 AM55.4 °F53.6 °F94 %29.74 in6.2 miVariable1.2 mph
7:30 AM57.2 °F55.4 °F94 %29.74 in6.2 miENE (60°)3.5 mph
8:00 AM55.4 °F53.6 °F94 %29.74 in6.2 miVariable2.3 mph
8:30 AM57.2 °F55.4 °F94 %29.74 in6.2 miSSW (200°)2.3 mph
9:00 AM62.6 °F59.0 °F88 %29.77 in6.2 miCalm
9:30 AM64.4 °F59.0 °F83 %29.77 in6.2 miVariable1.2 mph
10:00 AM66.2 °F59.0 °F78 %29.77 in6.2 miVariable2.3 mph
10:30 AM66.2 °F59.0 °F78 %29.77 in6.2 miVariable1.2 mphPartly Cloudy
11:00 AM69.8 °F60.8 °F73 %29.77 in6.2 miNorth (360°)5.8 mph
11:30 AM69.8 °F60.8 °F73 %29.77 in6.2 miNNE (20°)4.6 mph
12:00 PM71.6 °F60.8 °F69 %29.77 in6.2 miNNW (330°)3.5 mph
12:30 PM73.4 °F60.8 °F65 %29.77 in6.2 miVariable2.3 mph
1:00 PM75.2 °F59.0 °F57 %29.77 in6.2 miVariable2.3 mph
1:30 PM75.2 °F62.6 °F65 %29.77 in6.2 miNorth (350°)3.5 mph
2:00 PM77.0 °F60.8 °F57 %29.77 in6.2 miNNE (30°)5.8 mph
2:30 PM77.0 °F59.0 °F54 %29.74 in6.2 miNorth (360°)4.6 mph
3:00 PM78.8 °F60.8 °F54 %29.74 in6.2 miVariable3.5 mphPartly Cloudy
3:30 PM78.8 °F60.8 °F54 %29.74 in6.2 miVariable2.3 mphMostly Cloudy
4:00 PM78.8 °F60.8 °F54 %29.74 in6.2 miENE (70°)3.5 mphPartly Cloudy
4:30 PM78.8 °F59.0 °F51 %29.74 in6.2 miNorth (360°)3.5 mph
5:00 PM78.8 °F59.0 °F51 %29.74 in6.2 miVariable2.3 mph
5:30 PM78.8 °F59.0 °F51 %29.74 in6.2 miVariable2.3 mph
6:00 PM77.0 °F59.0 °F54 %29.74 in6.2 miVariable1.2 mph
6:30 PM77.0 °F62.6 °F61 %29.77 in6.2 miVariable1.2 mph
7:00 PM73.4 °F64.4 °F73 %29.77 in6.2 miSE (140°)1.2 mph
7:30 PM71.6 °F64.4 °F78 %29.77 in6.2 miCalm
8:00 PM71.6 °F62.6 °F73 %29.77 in6.2 miVariable3.5 mph
8:30 PM68.0 °F62.6 °F83 %29.77 in6.2 miVariable2.3 mph
9:00 PM68.0 °F60.8 °F78 %29.80 in6.2 miCalm
9:30 PM66.2 °F60.8 °F83 %29.80 in6.2 miCalm
10:00 PM64.4 °F60.8 °F88 %29.80 in6.2 miENE (60°)1.2 mph
10:30 PM62.6 °F59.0 °F88 %29.80 in6.2 miEast (90°)1.2 mph
11:00 PM62.6 °F59.0 °F88 %29.80 in6.2 miCalm
11:30 PM62.6 °F59.0 °F88 %29.83 in6.2 miEast (90°)2.3 mph
Hourly data recorded from LFMV, located miles away from Avignon, France







STORIES FROM OUR PARTNERS